Change the Weather History Date:

Sunday, June 22, 2014

  Actual Average Record
Temperature  
Mean Temperature 78 °F 75 °F  
Max Temperature 86 °F 86 °F 102 °F (1988)
Min Temperature 70 °F 63 °F 49 °F (2001)
Degree Days  
Heating Degree Days 0 0  
Month to date heating degree days 2 13  
Since 1 June heating degree days 2 13  
Since 1 July heating degree days 6484 6053  
Cooling Degree Days 13 10  
Month to date cooling degree days 192 156  
Year to date cooling degree days 352 235  
Since 1 June cooling degree days 192 156  
Growing Degree Days 28 (Base 50)    
Moisture  
Dew Point 66 °F    
Average Humidity 66    
Maximum Humidity 84    
Minimum Humidity 48    
Precipitation  
Precipitation 0.05 in 0.14 in 2.40 in (1899)
Month to date precipitation 5.02 3.22  
Year to date precipitation 14.77 13.56  
Snow  
Snow 0.00 in 0.00 in - ()
Month to date snowfall 0.0 0.0  
Since 1 July snowfall 18.2 25.9  
Snow Depth 0.00 in    
Sea Level Pressure  
Sea Level Pressure 29.82 in    
Wind  
Wind Speed 9 mph (NNE)    
Max Wind Speed 24 mph    
Max Gust Speed 32 mph    
Visibility 10 miles    
Events Rain , Thunderstorm    
T = Trace of Precipitation, MM = Missing Value Source: NWS Daily Summary

Daily Weather History Graph

Daily Weather History Graph

Search for Another Location

Airport or City:

Trip Planner

Search our weather history database for the weather conditions in past years. The results will help you decide how hot, cold, wet, or windy it might be!

Date:

Astronomy

Jun. 22, 2014 Rise Set
Actual Time 5:55 AM CDT 9:02 PM CDT
Civil Twilight 5:22 AM CDT 9:35 PM CDT
Nautical Twilight 4:39 AM CDT 10:18 PM CDT
Astronomical Twilight 3:48 AM CDT 11:09 PM CDT
Moon 2:46 AM CDT (6/22) 4:43 PM CDT (6/22)
Length of Visible Light 16h 13m
Length of Day
15h 06m
Waning Crescent, 20% of the Moon is Illuminated
Jun 22
Waning Crescent
Jun 27
New
Jul 5
First Quarter
Jul 12
Full
Jul 18
Last Quarter

Hourly Weather History & Observations

Time (CDT) Temp. Heat Index Dew Point Humidity Pressure Visibility Wind Dir Wind Speed Gust Speed Precip Events Conditions
12:54 AM 79.0 °F - 68.0 °F 69% 29.81 in 10.0 mi SE 10.4 mph - 0.00 in   Clear
1:54 AM 79.0 °F - 68.0 °F 69% 29.79 in 10.0 mi South 11.5 mph - N/A   Partly Cloudy
2:54 AM 77.0 °F - 66.9 °F 71% 29.77 in 10.0 mi South 10.4 mph - N/A   Clear
3:54 AM 77.0 °F - 66.0 °F 69% 29.76 in 10.0 mi South 11.5 mph - N/A   Clear
4:54 AM 78.1 °F - 66.0 °F 66% 29.77 in 10.0 mi SSW 17.3 mph - N/A   Mostly Cloudy
5:10 AM 79.0 °F - 64.9 °F 62% 29.83 in 10.0 mi WSW 21.9 mph 32.2 mph N/A Thunderstorm Thunderstorm
5:25 AM 77.0 °F - 66.9 °F 71% 29.84 in 10.0 mi West 18.4 mph 29.9 mph 0.00 in Rain , Thunderstorm Light Rain
5:45 AM 73.9 °F - 66.9 °F 79% 29.84 in 10.0 mi NNW 10.4 mph - 0.00 in Rain Light Rain
5:54 AM 73.0 °F - 64.9 °F 76% 29.80 in 9.0 mi NNW 6.9 mph - 0.00 in Rain Light Rain
6:54 AM 70.0 °F - 64.9 °F 84% 29.75 in 10.0 mi ENE 12.7 mph - 0.00 in Rain Light Rain
7:54 AM 71.1 °F - 64.0 °F 78% 29.82 in 10.0 mi ENE 5.8 mph - 0.00 in   Clear
8:31 AM 71.1 °F - 64.9 °F 81% 29.91 in 4.0 mi Calm Calm - 0.02 in Rain , Thunderstorm Light Rain
8:46 AM 71.1 °F - 66.0 °F 84% 29.91 in 6.0 mi Calm Calm - 0.05 in Rain Light Rain
8:54 AM 72.0 °F - 66.0 °F 81% 29.88 in 10.0 mi Calm Calm - 0.05 in Rain Light Rain
9:54 AM 71.1 °F - 66.0 °F 84% 29.87 in 10.0 mi ENE 3.5 mph - 0.00 in   Mostly Cloudy
10:54 AM 73.0 °F - 66.0 °F 79% 29.85 in 10.0 mi SE 8.1 mph - N/A   Clear
11:54 AM 75.9 °F - 66.0 °F 71% 29.84 in 10.0 mi Variable 3.5 mph - N/A   Clear
12:54 PM 78.1 °F - 66.0 °F 66% 29.83 in 10.0 mi South 6.9 mph - N/A   Partly Cloudy
1:54 PM 82.0 °F 84.1 °F 66.0 °F 58% 29.83 in 10.0 mi NNW 4.6 mph - N/A   Partly Cloudy
2:54 PM 84.0 °F 86.3 °F 66.0 °F 55% 29.81 in 10.0 mi NNW 8.1 mph - N/A   Partly Cloudy
3:54 PM 84.0 °F 85.4 °F 64.0 °F 51% 29.82 in 10.0 mi NNW 15.0 mph - N/A   Clear
4:54 PM 84.0 °F 84.9 °F 63.0 °F 49% 29.81 in 10.0 mi North 15.0 mph - N/A   Clear
5:54 PM 82.9 °F 84.0 °F 63.0 °F 51% 29.80 in 10.0 mi NNE 16.1 mph - N/A   Clear
6:54 PM 82.0 °F 83.8 °F 64.9 °F 56% 29.80 in 10.0 mi NE 12.7 mph - N/A   Partly Cloudy
7:54 PM 79.0 °F - 63.0 °F 58% 29.82 in 10.0 mi NE 8.1 mph - N/A   Clear
8:54 PM 75.9 °F - 64.9 °F 69% 29.82 in 10.0 mi ENE 5.8 mph - N/A   Clear
9:54 PM 75.9 °F - 64.9 °F 69% 29.85 in 10.0 mi East 5.8 mph - N/A   Clear
10:54 PM 75.0 °F - 66.0 °F 73% 29.86 in 10.0 mi North 3.5 mph - N/A   Clear
11:54 PM 71.1 °F - 66.0 °F 84% 29.85 in 10.0 mi NNE 5.8 mph - N/A   Clear